Regional Weather Roundup
Issued by NWS

Home | Current Version | Previous Version | Text Only | Print | Product List | Glossary Off
Versions: 1 2 3 4 5 6 7 8 9 10 11 12 13 14 15 16 17 18 19 20 21 22 23 24 25 26 27 28

000
ASUS45 KSLC 231210
RWRUT

UTAH REGIONAL WEATHER ROUNDUP
NATIONAL WEATHER SERVICE SALT LAKE CITY UT
600 AM MDT THU OCT 23 2014

UTZ001>011-023>025-231300-

NORTHERN UTAH

CITY           SKY/WX    TMP DP  RH WIND       PRES   REMARKS
BRIGHAM CITY   MOCLDY    38  31  74 CALM      30.15S
HILL AFB       CLOUDY    46  26  45 E16       30.15R
LOGAN          CLEAR     32  28  85 NW5       30.14F WCI  27
OGDEN          PTCLDY    45  28  51 S9        30.13S
PROVO AIRPORT  CLEAR     41  30  65 S7        30.17F
SALT LAKE CITY PTCLDY    45  34  65 SE9       30.12F
VERNAL         CLEAR     37  32  82 CALM      30.23S
WENDOVER       MOCLDY    41  28  60 E3        30.13F
HEBER CITY     CLEAR     30  27  86 CALM      30.23R
WEST JORDAN    CLEAR     46  36  66 S8        30.14F

$$

UTZ012>022-026-027-231300-

SOUTHERN/CENTRAL UTAH

CITY           SKY/WX    TMP DP  RH WIND       PRES   REMARKS
BLANDING       CLEAR     44  33  65 CALM      30.31S
BRYCE CANYON   PTCLDY    29  23  78 W9        30.32S WCI  20
CEDAR CITY     PTCLDY    34  28  79 SW5       30.20S WCI  30
DELTA          MOCLDY    39  30  68 NE5       30.16S
HANKSVILLE       N/A     41  32  70 CALM      30.20S
MILFORD        PTCLDY    35  27  72 SW6       30.16F WCI  30
MOAB/CYNLANDS  CLEAR     48  35  60 S3        30.17S
PRICE          CLEAR     42  29  59 NE5       30.22S
ST GEORGE      SUNNY     54  30  40 S5        30.14S
KANAB            N/A     36  28  75 NE7       30.25R WCI  30

$$

REGIONAL REPORTS     COLORADO/ARIZONA

CITY           SKY/WX    TMP DP  RH WIND       PRES   REMARKS
CRAIG, CO      CLEAR     28  25  88 CALM      30.29R
GRAND JUNCTION CLEAR     43  37  79 SE3       30.22R
RIFLE          CLEAR     36  33  89 CALM      30.28R
MONTROSE       CLEAR     39  34  82 S7        30.29R WCI  34
CORTEZ         CLEAR     35  32  88 E3        30.28R
PAGE, AZ       CLEAR     55  30  38 S3        30.17R
GRAND CANYON   PTCLDY    29  23  78 CALM      30.28F HAZE
KINGMAN        PTCLDY    50  39  66 SE5       30.11R
FLAGSTAFF      PTCLDY    33  29  85 CALM      30.31R FOG

$$

REGIONAL REPORTS    NEVADA/IDAHO/WYOMING

CITY           SKY/WX    TMP DP  RH WIND       PRES   REMARKS
LAS VEGAS, NV  PTCLDY    63  30  28 S8        30.01R
ELY            PTCLDY    38  20  48 S9        30.19S WCI  31
ELKO           PTCLDY    36  22  56 SE3       30.10F
POCATELLO, ID  CLEAR     41  26  55 CALM      30.08F
BURLEY         PTCLDY    44  29  55 CALM      30.04S
EVANSTON, WY   PTCLDY    37  22  54 S9        30.22F WCI  30
ROCK SPRINGS   PTCLDY    39  20  46 CALM      30.22F

$$



USA.gov is the U.S. government's official web portal to all federal, state and local government web resources and services.